Dewpoint
39 40 40 40 40 39 39 39 39 40 41 43 43 43 42 42 42 41 39 39 40 40 40 41 42 42 41 42 42 42 43 43
39 39 39 39 39 38 38 37 38 38 39 40 40 39 39 39 39 38 38 37 37 37 39 39 40 40 39 40 40 40 42 42
39 39 38 38 38 38 37 37 37 37 38 38 40 39 37 37 37 38 37 36 36 36 37 38 38 38 38 38 38 38 39 40
38 38 38 38 38 37 37 36 36 36 36 37 37 37 36 35 34 35 36 36 35 36 36 36 36 37 37 37 37 37 38 39
38 38 37 37 37 37 36 35 35 35 35 34 34 34 32 33 34 34 34 35 34 35 36 36 36 37 36 37 37 38 39 38
37 37 37 37 37 36 35 34 34 34 34 34 33 33 33 33 33 33 33 34 34 35 35 35 36 36 36 37 36 36 37 38
37 37 37 36 36 35 34 33 33 33 33 33 32 32 32 32 32 32 33 32 33 34 34 34 35 35 35 35 35 34 35 35
37 36 36 35 34 34 33 33 32 32 32 32 32 32 31 32 32 31 31 31 32 31 32 32 33 35 35 34 34 34 33 32
36 36 35 34 34 33 33 33 32 32 32 32 33 32 32 32 32 31 31 31 31 30 29 31 32 34 35 35 34 34 31 31
36 36 34 33 33 33 32 32 32 32 32 32 32 32 32 32 32 31 30 31 26 26 27 28 29 32 33 32 31 32 28 29
36 35 33 33 33 33 32 32 32 32 32 32 32 31 31 31 31 30 28 25 22 23 26 27 28 30 31 30 29 29 25 26
35 34 33 33 32 32 32 32 32 32 32 31 31 30 30 29 28 27 25 25 23 22 24 26 27 28 27 25 25 25 24 22
33 33 33 32 32 32 32 32 32 31 32 32 31 30 28 26 26 25 23 21 21 22 23 25 27 28 22 21 24 23 21 20
33 32 32 32 32 32 31 32 31 31 32 29 28 27 26 25 25 24 21 19 20 21 22 24 26 25 20 18 19 20 20 20
32 32 32 32 32 32 31 31 32 31 28 27 27 26 25 24 24 24 20 20 19 20 21 24 24 24 20 16 16 16 17 18
32 32 32 32 31 31 31 31 32 29 28 27 26 26 25 24 24 24 22 20 20 20 21 23 24 23 20 19 17 16 16 16
34 33 32 32 32 32 31 32 30 28 27 26 26 25 24 23 22 22 21 20 20 20 20 23 24 23 19 18 18 17 16 16
35 36 34 34 32 31 31 31 29 26 26 26 25 25 23 22 20 19 18 18 18 18 19 22 23 20 17 18 18 18 18 18
39 38 34 32 32 31 33 31 28 26 25 25 25 24 23 22 20 18 17 15 15 15 16 18 20 18 16 17 17 17 17 18
Wind_Speed
16 16 16 16 14 14 12 12 12 10 12 13 13 13 14 13 14 15 17 16 17 15 14 15 14 12 13 13 13 12 8 14
16 17 17 16 14 14 11 13 10 10 8 9 9 11 9 12 12 14 14 15 15 15 12 13 13 12 13 13 11 16 10 17
18 18 15 12 14 15 13 13 12 11 7 5 4 7 12 10 11 12 13 13 14 13 14 13 14 12 13 13 15 12 7 14
23 19 16 15 16 16 14 14 14 12 10 8 8 8 6 7 10 10 11 12 13 13 13 13 13 12 12 12 12 12 9 8
22 20 18 17 15 16 16 16 14 12 12 14 14 10 7 6 8 9 11 12 13 12 11 12 12 11 11 12 12 10 9 9
23 21 19 16 18 18 16 16 16 14 14 13 15 14 11 8 9 10 10 10 11 12 12 12 11 9 11 12 12 11 9 8
20 17 17 17 17 17 16 17 15 14 14 13 14 14 12 12 11 10 8 8 11 13 11 10 9 10 11 11 12 12 11 10
24 24 21 19 20 17 16 17 15 13 14 13 13 13 12 11 9 8 7 9 9 12 11 10 9 10 10 10 11 11 12 12
25 24 22 20 21 17 16 17 16 14 13 13 12 12 10 9 9 7 8 9 10 10 11 11 11 11 10 12 11 10 12 12
27 22 20 19 20 19 18 18 15 14 13 12 12 11 10 9 8 9 10 10 9 11 10 11 12 12 13 12 12 12 14 13
24 22 20 17 18 17 16 16 16 14 14 12 11 10 8 8 8 11 13 12 13 11 10 11 12 10 12 12 12 11 13 12
24 20 18 19 17 17 17 16 15 14 13 12 13 10 8 8 11 13 13 11 10 10 9 10 10 12 13 13 10 12 12 13
22 22 21 20 19 17 18 17 15 14 12 12 12 10 12 12 13 13 12 11 9 9 10 9 10 12 13 12 11 11 13 14
22 22 21 20 18 18 18 17 16 13 14 16 15 14 13 12 12 12 12 11 11 10 9 10 11 13 13 12 11 10 11 12
21 20 19 18 18 18 18 17 16 14 16 16 17 14 13 12 11 12 12 11 10 8 8 9 11 13 12 11 11 11 11 12
23 21 19 19 20 19 18 17 17 18 17 16 17 15 13 11 11 11 12 11 9 8 10 9 11 11 10 9 10 11 12 11
27 29 30 27 27 23 19 16 18 20 18 17 16 15 14 11 12 12 12 10 8 9 10 10 12 12 13 12 11 11 13 13
33 34 33 31 30 26 22 21 19 20 19 17 16 14 13 12 12 13 13 9 10 11 11 11 11 11 12 12 12 10 10 11
31 25 26 26 25 24 24 20 19 20 20 18 16 14 14 14 14 15 13 12 12 11 13 11 9 11 12 12 12 10 10 11
Wind_Direction
152 140 132 122 113 100 90 80 73 79 89 98 82 66 55 48 45 44 36 26 23 20 17 12 10 18 17 10 3 352 354 349
153 144 135 126 120 106 95 84 65 76 94 95 79 73 61 51 48 44 42 32 21 20 11 8 9 13 14 8 359 1 2 355
163 155 149 146 136 118 107 95 82 73 91 99 114 105 72 67 50 47 46 38 30 28 17 7 4 4 9 8 14 1 353 354
168 166 159 149 142 131 119 102 86 75 79 99 98 94 78 56 45 45 39 39 26 22 19 13 6 7 2 357 7 9 353 345
167 166 163 158 148 134 123 109 100 88 86 88 92 94 89 62 55 46 39 38 29 20 16 15 11 4 357 353 354 355 1 357
169 169 164 153 145 136 124 114 101 94 89 94 99 94 93 85 67 53 38 29 24 19 21 20 15 7 3 3 6 3 14 359
163 160 153 150 141 135 126 113 102 97 95 97 102 98 93 82 68 58 43 31 24 17 19 18 19 14 18 12 10 11 10 24
162 162 162 152 149 143 129 122 113 108 101 99 98 96 92 89 81 72 63 47 37 21 16 16 17 21 25 28 24 24 20 33
167 166 164 156 153 150 138 129 125 118 110 103 98 95 90 82 81 73 57 50 51 28 24 19 16 23 32 35 24 31 22 31
166 164 162 153 154 151 146 133 131 125 118 110 102 99 95 92 85 71 51 51 57 32 26 24 20 27 40 48 45 27 28 27
162 163 156 151 149 149 140 137 138 137 129 124 115 109 99 89 81 68 75 65 49 34 27 24 22 29 44 55 46 36 42 23
160 154 150 148 144 153 146 145 145 140 136 133 126 122 104 90 91 89 81 71 53 40 34 29 24 34 43 44 53 39 50 37
153 154 151 151 158 156 155 152 153 149 144 135 138 130 118 102 95 95 86 74 54 43 35 32 26 43 54 47 50 44 46 38
150 155 161 160 163 161 161 165 161 153 141 136 130 124 118 110 102 103 90 79 60 41 33 29 40 69 61 51 48 50 48 43
160 164 164 165 167 166 164 173 163 148 140 134 130 131 126 112 105 97 94 79 68 52 35 44 68 68 63 54 49 48 49 45
173 170 170 169 167 172 175 172 158 148 139 137 133 127 115 114 104 94 90 80 63 56 54 69 57 79 69 54 50 48 49 50
178 179 169 184 184 175 169 163 154 144 138 136 131 129 122 123 110 100 91 79 64 55 52 68 60 75 64 65 61 56 53 46
192 193 188 178 172 164 164 159 148 143 139 138 133 131 131 121 112 103 97 92 81 72 59 59 70 71 69 74 69 56 49 42
199 183 177 173 161 157 144 150 154 146 142 137 135 137 132 126 115 107 108 96 83 78 72 62 77 84 81 77 70 55 50 39